This is the latest recevied weather packets stored in our database for station/object SQ7IQO. If no packets are shown the sender has not sent any weather packets the latest 10 day(s).
| Time | Temp. | Humidity | Pressure | Rain* | Wind** | Luminosity | Snow |
|---|---|---|---|---|---|---|---|
| 1787419671 | 14.44° C | - | - | 41.91 mm | 0.89 m/s, ° | - | - |
| 1787419611 | 14.44° C | - | - | 41.91 mm | 1.34 m/s, ° | - | - |
| 1787419551 | 15° C | - | - | 41.91 mm | 1.79 m/s, ° | - | - |
| 1787419491 | 15° C | - | - | 41.91 mm | 0.45 m/s, ° | - | - |
| 1787419431 | 15° C | - | - | 41.91 mm | 0 m/s | - | - |
| 1787419371 | 15° C | - | - | 41.91 mm | 0 m/s | - | - |
| 1787419311 | 15° C | - | - | 41.91 mm | 0.89 m/s, ° | - | - |
| 1787419251 | 14.44° C | - | - | 41.91 mm | 0.45 m/s, ° | - | - |
| 1787419191 | 15° C | - | - | 41.91 mm | 0.45 m/s, ° | - | - |
| 1787419131 | 15° C | - | - | 66.8 mm | 0.89 m/s, ° | - | - |
| 1787419071 | 15° C | - | - | 66.8 mm | 0.45 m/s, ° | - | - |
| 1787419011 | 15° C | - | - | 158.75 mm | 0.45 m/s, ° | - | - |
| 1787418951 | 14.44° C | - | - | 178.82 mm | 0.45 m/s, ° | - | - |
| 1787418891 | 15° C | - | - | 223.77 mm | 0.89 m/s, ° | - | - |
| 1787418831 | 15° C | - | - | 223.77 mm | 0.89 m/s, ° | - | - |
| 1787418771 | 14.44° C | - | - | 245.87 mm | 0.89 m/s, ° | - | - |
| 1787418711 | 15° C | - | - | 26.67 mm | 0.89 m/s, ° | - | - |
| 1787418651 | 15° C | - | - | 28.96 mm | 0.45 m/s, ° | - | - |
| 1787418591 | 15° C | - | - | 28.96 mm | 0.45 m/s, ° | - | - |
| 1787418531 | 15° C | - | - | 31.24 mm | 0 m/s | - | - |
| 1787418471 | 15° C | - | - | 31.24 mm | 0 m/s | - | - |
| 1787418411 | 15° C | - | - | 33.02 mm | 0 m/s | - | - |
| 1787418351 | 15° C | - | - | 33.02 mm | 0 m/s | - | - |
| 1787418291 | 15° C | - | - | 33.02 mm | 0 m/s | - | - |
| 1787418231 | 15° C | - | - | 33.02 mm | 0 m/s | - | - |
* Rain latest hour (hover to see other rain measurements)
** Current wind speed in m/s (hover to see current wind gust speed)